Location: Kaltenbach
(49.2000°N, 7.7500°E)
Time: 18:23:11
(UTC+00:00)

STARLINK-1110 - Pass Details

Date: 24 January 2020
Orbit: 349 x 350 km, 53.0° (Epoch: 16 February)

Event Time Altitude Azimuth Distance (km) Brightness Sun altitude
Rises 17:13:50 0° 273° (W) 2,161 8.2 -10.1°
Reaches altitude 10° 17:15:56 10° 281° (WNW) 1,320 6.6 -10.5°
Maximum altitude 17:18:43 39° 353° (N) 549 3.5 -10.9°
Enters shadow 17:20:31 18° 55° (NE) 946 4.2 -11.2°
